• In Uzbekistan
  • List of Countries
  • For 7 days
  • Water Temperature
  • Satellite Maps
  • Weather Map
  • Weather Widgets
  • user-avatar
    Login

    Hourly Weather Trujillo

    Today, 21 July, Sunday

    Time Temperature Precipitation Wind Pressure Humidity
    00:00 +18°C° 0 mm 2 mps 647 mmHg 62%
    01:00 +18°C° 0 mm 2 mps 646 mmHg 61%
    02:00 +18°C° 0 mm 2 mps 646 mmHg 60%
    03:00 +17°C° 0 mm 2 mps 646 mmHg 60%
    04:00 +17°C° 0 mm 2 mps 646 mmHg 60%
    05:00 +18°C° 0 mm 2 mps 646 mmHg 60%
    06:00 +18°C° 0 mm 2 mps 647 mmHg 59%
    07:00 +19°C° 0 mm 2 mps 647 mmHg 59%
    08:00 +21°C° 0 mm 2 mps 648 mmHg 53%
    09:00 +25°C° 0 mm 2 mps 649 mmHg 48%
    10:00 +27°C° 0 mm 1 mps 650 mmHg 42%
    11:00 +28°C° 0 mm 2 mps 649 mmHg 42%
    12:00 +28°C° 0 mm 2 mps 649 mmHg 41%
    13:00 +29°C° 0 mm 2 mps 649 mmHg 41%
    14:00 +28°C° 0 mm 2 mps 648 mmHg 47%
    15:00 +27°C° 0 mm 2 mps 647 mmHg 52%
    16:00 +26°C° 0 mm 1 mps 646 mmHg 58%
    17:00 +24°C° 0 mm 1 mps 646 mmHg 67%
    18:00 +22°C° 0 mm 1 mps 646 mmHg 75%
    19:00 +20°C° 0 mm 1 mps 646 mmHg 84%
    20:00 +20°C° 0 mm 1 mps 646 mmHg 80%
    21:00 +20°C° 0 mm 1 mps 647 mmHg 77%
    22:00 +18°C° 0 mm 2 mps 647 mmHg 74%
    23:00 +18°C° 0 mm 2 mps 647 mmHg 69%

    Tomorrow, 22 July, Monday

    Time Temperature Precipitation Wind Pressure Humidity
    00:00 +18°C° 0 mm 2 mps 646 mmHg 65%
    01:00 +17°C° 0 mm 2 mps 646 mmHg 61%
    02:00 +17°C° 0 mm 2 mps 646 mmHg 60%
    03:00 +18°C° 0 mm 1 mps 646 mmHg 60%
    04:00 +18°C° 0 mm 1 mps 645 mmHg 60%
    05:00 +19°C° 0 mm 1 mps 646 mmHg 60%
    06:00 +20°C° 0 mm 1 mps 646 mmHg 61%
    07:00 +20°C° 0 mm 1 mps 647 mmHg 62%
    08:00 +22°C° 0 mm 1 mps 648 mmHg 60%
    09:00 +24°C° 0 mm 1 mps 649 mmHg 59%
    10:00 +26°C° 0 mm 1 mps 650 mmHg 57%
    11:00 +26°C° 0.1 mm 1 mps 649 mmHg 56%
    12:00 +27°C° 0.1 mm 2 mps 649 mmHg 55%
    13:00 +28°C° 0.1 mm 2 mps 649 mmHg 54%
    14:00 +26°C° 0.4 mm 1 mps 648 mmHg 62%
    15:00 +25°C° 0.4 mm 1 mps 647 mmHg 71%
    16:00 +23°C° 0.4 mm 1 mps 646 mmHg 79%
    17:00 +22°C° 0 mm 1 mps 646 mmHg 81%
    18:00 +21°C° 0 mm 1 mps 646 mmHg 82%
    19:00 +20°C° 0 mm 1 mps 646 mmHg 84%
    20:00 +20°C° 0 mm 1 mps 647 mmHg 82%
    21:00 +20°C° 0 mm 1 mps 647 mmHg 79%
    22:00 +19°C° 0 mm 2 mps 647 mmHg 77%
    23:00 +19°C° 0 mm 1 mps 647 mmHg 76%

    Day after tomorrow, 23 July, Tuesday

    Time Temperature Precipitation Wind Pressure Humidity
    00:00 +19°C° 0 mm 1 mps 647 mmHg 76%
    01:00 +19°C° 0 mm 1 mps 647 mmHg 75%
    02:00 +19°C° 0 mm 1 mps 646 mmHg 75%
    03:00 +19°C° 0 mm 1 mps 646 mmHg 75%
    04:00 +19°C° 0 mm 1 mps 646 mmHg 75%
    05:00 +20°C° 0 mm 1 mps 647 mmHg 75%
    06:00 +20°C° 0 mm 1 mps 647 mmHg 75%
    07:00 +21°C° 0 mm 1 mps 648 mmHg 75%
    08:00 +23°C° 0.1 mm 1 mps 648 mmHg 69%
    09:00 +24°C° 0.1 mm 1 mps 649 mmHg 64%
    10:00 +26°C° 0.1 mm 1 mps 650 mmHg 59%
    11:00 +27°C° 0.1 mm 1 mps 649 mmHg 57%
    12:00 +27°C° 0.1 mm 2 mps 649 mmHg 56%
    13:00 +28°C° 0.1 mm 2 mps 649 mmHg 54%
    14:00 +27°C° 0.2 mm 2 mps 648 mmHg 59%
    15:00 +26°C° 0.2 mm 1 mps 647 mmHg 63%
    16:00 +25°C° 0.2 mm 1 mps 646 mmHg 68%
    17:00 +23°C° 0.2 mm 1 mps 646 mmHg 74%
    18:00 +22°C° 0.2 mm 1 mps 646 mmHg 80%
    19:00 +20°C° 0.2 mm 1 mps 646 mmHg 87%
    20:00 +19°C° 0 mm 2 mps 647 mmHg 83%
    21:00 +18°C° 0 mm 2 mps 647 mmHg 79%
    22:00 +18°C° 0 mm 2 mps 647 mmHg 75%
    23:00 +18°C° 0 mm 2 mps 647 mmHg 73%

    24 July, Wednesday

    Time Temperature Precipitation Wind Pressure Humidity
    00:00 +18°C° 0 mm 2 mps 647 mmHg 71%
    01:00 +18°C° 0 mm 2 mps 647 mmHg 69%
    02:00 +18°C° 0 mm 2 mps 647 mmHg 70%
    03:00 +18°C° 0 mm 2 mps 646 mmHg 71%
    04:00 +17°C° 0 mm 2 mps 646 mmHg 71%
    05:00 +19°C° 0 mm 1 mps 647 mmHg 71%
    06:00 +20°C° 0 mm 1 mps 647 mmHg 71%
    07:00 +21°C° 0 mm 1 mps 648 mmHg 70%
    08:00 +22°C° 0 mm 1 mps 649 mmHg 65%
    09:00 +24°C° 0 mm 1 mps 649 mmHg 60%
    10:00 +26°C° 0 mm 1 mps 650 mmHg 55%
    11:00 +27°C° 0.1 mm 1 mps 650 mmHg 52%
    12:00 +27°C° 0.1 mm 2 mps 649 mmHg 49%
    13:00 +28°C° 0.1 mm 2 mps 649 mmHg 46%
    14:00 +27°C° 0.1 mm 2 mps 648 mmHg 49%
    15:00 +26°C° 0.1 mm 1 mps 647 mmHg 52%
    16:00 +26°C° 0.1 mm 1 mps 647 mmHg 55%
    17:00 +24°C° 0.1 mm 1 mps 647 mmHg 63%
    18:00 +22°C° 0.1 mm 1 mps 646 mmHg 71%
    19:00 +19°C° 0.1 mm 1 mps 646 mmHg 79%
    20:00 +19°C° 0 mm 1 mps 646 mmHg 73%
    21:00 +18°C° 0 mm 2 mps 647 mmHg 68%
    22:00 +17°C° 0 mm 2 mps 647 mmHg 62%
    23:00 +17°C° 0 mm 2 mps 647 mmHg 60%

    25 July, Thursday

    Time Temperature Precipitation Wind Pressure Humidity
    00:00 +17°C° 0 mm 2 mps 646 mmHg 59%
    01:00 +18°C° 0 mm 1 mps 646 mmHg 58%
    02:00 +18°C° 0 mm 1 mps 646 mmHg 59%
    03:00 +18°C° 0 mm 1 mps 646 mmHg 60%
    04:00 +18°C° 0 mm 1 mps 646 mmHg 61%
    05:00 +19°C° 0 mm 1 mps 646 mmHg 61%
    06:00 +20°C° 0 mm 1 mps 647 mmHg 61%
    07:00 +20°C° 0 mm 1 mps 648 mmHg 61%
    08:00 +22°C° 0 mm 1 mps 648 mmHg 57%
    09:00 +24°C° 0 mm 1 mps 649 mmHg 53%
    10:00 +26°C° 0 mm 1 mps 650 mmHg 49%
    11:00 +27°C° 0 mm 1 mps 649 mmHg 47%
    12:00 +28°C° 0 mm 1 mps 649 mmHg 46%
    13:00 +29°C° 0 mm 1 mps 649 mmHg 44%
    14:00 +27°C° 0.2 mm 1 mps 648 mmHg 53%
    15:00 +26°C° 0.2 mm 1 mps 647 mmHg 61%
    16:00 +25°C° 0.2 mm 1 mps 646 mmHg 70%
    17:00 +23°C° 0.2 mm 1 mps 646 mmHg 76%
    18:00 +21°C° 0.2 mm 1 mps 646 mmHg 82%
    19:00 +20°C° 0.2 mm 1 mps 646 mmHg 88%
    20:00 +18°C° 0 mm 2 mps 647 mmHg 86%
    21:00 +18°C° 0 mm 2 mps 647 mmHg 85%
    22:00 +18°C° 0 mm 2 mps 647 mmHg 83%
    23:00 +18°C° 0 mm 2 mps 647 mmHg 82%

    26 July, Friday

    Time Temperature Precipitation Wind Pressure Humidity
    00:00 +18°C° 0 mm 2 mps 646 mmHg 81%
    01:00 +18°C° 0 mm 1 mps 646 mmHg 79%
    02:00 +18°C° 0 mm 1 mps 646 mmHg 80%
    03:00 +18°C° 0 mm 1 mps 646 mmHg 81%
    04:00 +18°C° 0 mm 1 mps 646 mmHg 81%
    05:00 +19°C° 0 mm 1 mps 647 mmHg 80%
    06:00 +20°C° 0 mm 1 mps 647 mmHg 78%
    07:00 +21°C° 0 mm 1 mps 648 mmHg 77%
    08:00 +21°C° 1.6 mm 1 mps 648 mmHg 79%
    09:00 +21°C° 1.6 mm 1 mps 648 mmHg 82%
    10:00 +21°C° 1.6 mm 1 mps 649 mmHg 85%
    11:00 +22°C° 0.7 mm 1 mps 649 mmHg 79%
    12:00 +23°C° 0.7 mm 1 mps 649 mmHg 73%
    13:00 +24°C° 0.7 mm 1 mps 648 mmHg 68%
    14:00 +24°C° 0.1 mm 1 mps 648 mmHg 65%
    15:00 +25°C° 0.1 mm 1 mps 648 mmHg 62%
    16:00 +25°C° 0.1 mm 1 mps 648 mmHg 59%
    17:00 +24°C° 0 mm 1 mps 648 mmHg 64%
    18:00 +22°C° 0 mm 1 mps 648 mmHg 69%
    19:00 +20°C° 0 mm 1 mps 647 mmHg 74%
    20:00 +20°C° 0 mm 1 mps 648 mmHg 73%
    21:00 +20°C° 0 mm 1 mps 648 mmHg 72%
    22:00 +19°C° 0 mm 1 mps 648 mmHg 71%
    23:00 +19°C° 0 mm 1 mps 648 mmHg 71%
    Show more